• în Republica Moldova
  • Lista ţărilor
  • Pe 7 zile
  • Temperatura apei
  • Hartă satelitară
  • Meteo pe hartă
  • Widget-uri
  • user-avatar
    Intrare

    Meteo pe oră la Hobart

    Astăzi, 27 Iunie, Marţi

    Timp Temperatura Precipitaţii Vânt Presiune Umiditate
    00:00 +3°C° 0 mm 3 m/s 753 mmHg 96%
    01:00 +4°C° 0 mm 2 m/s 753 mmHg 96%
    02:00 +4°C° 0 mm 2 m/s 753 mmHg 96%
    03:00 +3°C° 0 mm 2 m/s 753 mmHg 95%
    04:00 +3°C° 0 mm 2 m/s 753 mmHg 95%
    05:00 +3°C° 0 mm 2 m/s 753 mmHg 95%
    06:00 +2°C° 0 mm 2 m/s 753 mmHg 95%
    07:00 +2°C° 0 mm 2 m/s 753 mmHg 94%
    08:00 +4°C° 0 mm 2 m/s 753 mmHg 89%
    09:00 +7°C° 0 mm 1 m/s 753 mmHg 83%
    10:00 +9°C° 0 mm 1 m/s 753 mmHg 75%
    11:00 +10°C° 0 mm 1 m/s 753 mmHg 70%
    12:00 +11°C° 0 mm 1 m/s 753 mmHg 65%
    13:00 +12°C° 0 mm 1 m/s 752 mmHg 59%
    14:00 +11°C° 0 mm 1 m/s 752 mmHg 65%
    15:00 +10°C° 0 mm 1 m/s 752 mmHg 71%
    16:00 +9°C° 0 mm 1 m/s 752 mmHg 77%
    17:00 +8°C° 0 mm 1 m/s 752 mmHg 81%
    18:00 +7°C° 0 mm 1 m/s 752 mmHg 85%
    19:00 +6°C° 0 mm 1 m/s 752 mmHg 88%
    20:00 +6°C° 0 mm 1 m/s 752 mmHg 89%
    21:00 +5°C° 0 mm 2 m/s 752 mmHg 90%
    22:00 +4°C° 0 mm 3 m/s 752 mmHg 89%
    23:00 +4°C° 0 mm 3 m/s 752 mmHg 91%

    Mâine, 28 Iunie, Miercuri

    Timp Temperatura Precipitaţii Vânt Presiune Umiditate
    00:00 +4°C° 0 mm 3 m/s 752 mmHg 93%
    01:00 +3°C° 0 mm 3 m/s 752 mmHg 95%
    02:00 +3°C° 0 mm 3 m/s 752 mmHg 95%
    03:00 +3°C° 0 mm 3 m/s 752 mmHg 95%
    04:00 +3°C° 0 mm 3 m/s 752 mmHg 95%
    05:00 +3°C° 0 mm 3 m/s 751 mmHg 94%
    06:00 +3°C° 0 mm 3 m/s 751 mmHg 93%
    07:00 +3°C° 0 mm 3 m/s 751 mmHg 93%
    08:00 +4°C° 0 mm 3 m/s 751 mmHg 87%
    09:00 +7°C° 0 mm 2 m/s 751 mmHg 82%
    10:00 +8°C° 0 mm 2 m/s 751 mmHg 76%
    11:00 +9°C° 0 mm 2 m/s 751 mmHg 72%
    12:00 +12°C° 0 mm 2 m/s 751 mmHg 67%
    13:00 +13°C° 0 mm 2 m/s 750 mmHg 63%
    14:00 +12°C° 0 mm 2 m/s 750 mmHg 68%
    15:00 +12°C° 0 mm 2 m/s 750 mmHg 73%
    16:00 +10°C° 0 mm 2 m/s 749 mmHg 79%
    17:00 +9°C° 0 mm 2 m/s 749 mmHg 84%
    18:00 +7°C° 0 mm 2 m/s 749 mmHg 89%
    19:00 +6°C° 0 mm 2 m/s 749 mmHg 94%
    20:00 +6°C° 0 mm 2 m/s 749 mmHg 94%
    21:00 +5°C° 0 mm 3 m/s 749 mmHg 95%
    22:00 +4°C° 0 mm 3 m/s 749 mmHg 95%
    23:00 +4°C° 0 mm 3 m/s 748 mmHg 94%

    Poimâine, 29 Iunie, Joi

    Timp Temperatura Precipitaţii Vânt Presiune Umiditate
    00:00 +4°C° 0 mm 3 m/s 748 mmHg 94%
    01:00 +4°C° 0 mm 3 m/s 748 mmHg 93%
    02:00 +4°C° 0 mm 3 m/s 747 mmHg 93%
    03:00 +4°C° 0 mm 3 m/s 747 mmHg 93%
    04:00 +5°C° 0 mm 3 m/s 747 mmHg 93%
    05:00 +5°C° 0 mm 4 m/s 746 mmHg 92%
    06:00 +5°C° 0 mm 4 m/s 746 mmHg 91%
    07:00 +5°C° 0 mm 4 m/s 746 mmHg 91%
    08:00 +5°C° 0 mm 5 m/s 746 mmHg 85%
    09:00 +5°C° 0 mm 6 m/s 746 mmHg 79%
    10:00 +7°C° 0 mm 6 m/s 745 mmHg 74%
    11:00 +6°C° 0,4 mm 7 m/s 745 mmHg 77%
    12:00 +5°C° 0,4 mm 7 m/s 745 mmHg 81%
    13:00 +5°C° 0,4 mm 8 m/s 745 mmHg 85%
    14:00 +4°C° 0,1 mm 8 m/s 745 mmHg 82%
    15:00 +4°C° 0,1 mm 8 m/s 745 mmHg 80%
    16:00 +2°C° 0,1 mm 8 m/s 746 mmHg 77%
    17:00 +1°C° 0,2 mm 8 m/s 747 mmHg 79%
    18:00 +1°C° 0,2 mm 8 m/s 747 mmHg 81%
    19:00 0°C° 0,2 mm 8 m/s 748 mmHg 83%
    20:00 0°C° 0,2 mm 8 m/s 749 mmHg 83%
    21:00 -1°C° 0,2 mm 8 m/s 750 mmHg 83%
    22:00 -1°C° 0,2 mm 8 m/s 750 mmHg 83%
    23:00 -1°C° 0,2 mm 8 m/s 751 mmHg 82%

    30 Iunie, Vineri

    Timp Temperatura Precipitaţii Vânt Presiune Umiditate
    00:00 0°C° 0,2 mm 8 m/s 751 mmHg 81%
    01:00 0°C° 0,2 mm 8 m/s 752 mmHg 79%
    02:00 0°C° 0,1 mm 8 m/s 752 mmHg 81%
    03:00 0°C° 0,1 mm 8 m/s 753 mmHg 82%
    04:00 -1°C° 0,1 mm 7 m/s 753 mmHg 84%
    05:00 -1°C° 0 mm 7 m/s 754 mmHg 85%
    06:00 -1°C° 0 mm 7 m/s 754 mmHg 87%
    07:00 -1°C° 0 mm 6 m/s 755 mmHg 88%
    08:00 +1°C° 0 mm 6 m/s 755 mmHg 82%
    09:00 +2°C° 0 mm 6 m/s 756 mmHg 76%
    10:00 +4°C° 0 mm 6 m/s 756 mmHg 69%
    11:00 +5°C° 0 mm 5 m/s 756 mmHg 67%
    12:00 +6°C° 0 mm 5 m/s 756 mmHg 64%
    13:00 +7°C° 0 mm 5 m/s 756 mmHg 61%
    14:00 +6°C° 0 mm 5 m/s 757 mmHg 65%
    15:00 +6°C° 0 mm 4 m/s 757 mmHg 69%
    16:00 +5°C° 0 mm 4 m/s 757 mmHg 73%
    17:00 +4°C° 0 mm 4 m/s 757 mmHg 79%
    18:00 +3°C° 0 mm 3 m/s 757 mmHg 86%
    19:00 +1°C° 0 mm 3 m/s 758 mmHg 92%
    20:00 +1°C° 0 mm 3 m/s 758 mmHg 92%
    21:00 +1°C° 0 mm 3 m/s 758 mmHg 93%
    22:00 +1°C° 0 mm 3 m/s 758 mmHg 94%
    23:00 +1°C° 0 mm 3 m/s 758 mmHg 93%

    1 Iulie, Sâmbătă

    Timp Temperatura Precipitaţii Vânt Presiune Umiditate
    00:00 0°C° 0 mm 3 m/s 757 mmHg 93%
    01:00 0°C° 0 mm 3 m/s 757 mmHg 92%
    02:00 0°C° 0 mm 3 m/s 757 mmHg 92%
    03:00 0°C° 0 mm 3 m/s 757 mmHg 91%
    04:00 0°C° 0 mm 3 m/s 756 mmHg 91%
    05:00 0°C° 0 mm 3 m/s 757 mmHg 90%
    06:00 +1°C° 0 mm 2 m/s 757 mmHg 90%
    07:00 +1°C° 0 mm 2 m/s 757 mmHg 90%
    08:00 +3°C° 0 mm 2 m/s 757 mmHg 83%
    09:00 +5°C° 0 mm 2 m/s 757 mmHg 76%
    10:00 +6°C° 0 mm 2 m/s 757 mmHg 70%
    11:00 +8°C° 0 mm 2 m/s 756 mmHg 66%
    12:00 +9°C° 0 mm 2 m/s 756 mmHg 63%
    13:00 +10°C° 0 mm 2 m/s 755 mmHg 59%
    14:00 +10°C° 0 mm 2 m/s 755 mmHg 65%
    15:00 +9°C° 0 mm 2 m/s 754 mmHg 72%
    16:00 +8°C° 0 mm 2 m/s 754 mmHg 78%
    17:00 +6°C° 0 mm 2 m/s 754 mmHg 83%
    18:00 +4°C° 0 mm 3 m/s 754 mmHg 88%
    19:00 +3°C° 0 mm 3 m/s 754 mmHg 92%
    20:00 +3°C° 0 mm 3 m/s 754 mmHg 92%
    21:00 +2°C° 0 mm 3 m/s 754 mmHg 92%
    22:00 +2°C° 0 mm 3 m/s 754 mmHg 92%
    23:00 +2°C° 0 mm 3 m/s 753 mmHg 91%

    2 Iulie, Duminică

    Timp Temperatura Precipitaţii Vânt Presiune Umiditate
    00:00 +2°C° 0 mm 3 m/s 753 mmHg 89%
    01:00 +2°C° 0 mm 3 m/s 752 mmHg 87%
    02:00 +2°C° 0 mm 3 m/s 752 mmHg 87%
    03:00 +2°C° 0 mm 3 m/s 752 mmHg 86%
    04:00 +2°C° 0 mm 3 m/s 751 mmHg 85%
    05:00 +2°C° 0 mm 3 m/s 751 mmHg 86%
    06:00 +2°C° 0 mm 3 m/s 751 mmHg 87%
    07:00 +2°C° 0 mm 3 m/s 751 mmHg 88%
    08:00 +4°C° 0 mm 3 m/s 751 mmHg 82%
    09:00 +7°C° 0 mm 3 m/s 751 mmHg 76%
    10:00 +8°C° 0 mm 3 m/s 751 mmHg 70%
    11:00 +10°C° 0 mm 4 m/s 750 mmHg 63%
    12:00 +11°C° 0 mm 4 m/s 749 mmHg 57%
    13:00 +12°C° 0 mm 4 m/s 748 mmHg 50%
    14:00 +11°C° 0 mm 4 m/s 748 mmHg 56%
    15:00 +10°C° 0 mm 4 m/s 747 mmHg 61%
    16:00 +8°C° 0 mm 4 m/s 747 mmHg 66%
    17:00 +6°C° 0 mm 4 m/s 747 mmHg 70%
    18:00 +5°C° 0 mm 4 m/s 746 mmHg 75%
    19:00 +3°C° 0 mm 5 m/s 746 mmHg 79%
    20:00 +3°C° 0 mm 5 m/s 746 mmHg 80%
    21:00 +4°C° 0 mm 4 m/s 745 mmHg 80%
    22:00 +3°C° 0 mm 4 m/s 745 mmHg 80%
    23:00 +3°C° 0 mm 4 m/s 744 mmHg 81%
    Arată mai mult